Freedom of the Seas — C6UZ7 — position and weather

sailwx.info

Track history (hours):
 
Tides and Currents Weather Stations Pressure Air Temp Water Temp Dewpoint Dewpoint Depression Visibility Wind Speed Wind Dir Waves Ship Positions

Freedom of the Seas

Last reported at 2018-May-18 05:12 UTC. Time now 2018-May-24 13:56 UTC.
Position N 14°35' W 061°26'.

Length 339 m; draft 9 m.

Type: Passenger vessel. MMSI: 309906000.

Date/timePositionNaut miles runAvg speedWind from/ knotsBaromVisibWave heightAir tempDewpointWater temp
2018-May-18 05:12N 14°35' W 061°26'313.8
2018-May-18 05:00N 14°33' W 061°24'1515.4
2018-May-18 04:03N 14°23' W 061°13'217.0
2018-May-18 03:57N 14°22' W 061°12'716.6
2018-May-18 03:31N 14°17' W 061°06'816.9
2018-May-18 03:01N 14°14' W 060°58'917.6
2018-May-18 02:30N 14°09' W 060°50'1 0.1
2018-May-17 00:40N 14°09' W 060°49'2 8.6
2018-May-17 00:29N 14°10' W 060°50'4 8.8
2018-May-16 23:59N 14°12' W 060°54'4 8.4
2018-May-16 23:30N 14°11' W 060°58'11 0.9
2018-May-16 10:57N 14°10' W 061°09'613.5
2018-May-16 10:30N 14°15' W 061°13'1813.1
2018-May-16 09:06N 14°30' W 061°24'212.5
2018-May-16 08:56N 14°32' W 061°24'157 8.4
2018-May-15 14:20N 17°07' W 061°51'0 0.0
2018-May-15 13:59N 17°07' W 061°51'0 0.0
2018-May-15 13:29N 17°07' W 061°51'0 0.0
2018-May-15 12:59N 17°07' W 061°51'0 0.0
2018-May-15 12:29N 17°07' W 061°51'0 0.0
2018-May-15 11:59N 17°07' W 061°51'0 0.1
2018-May-15 11:30N 17°07' W 061°51'1 1.9
2018-May-15 11:00N 17°08' W 061°52'4 7.9
2018-May-15 10:30N 17°09' W 061°56'4 8.6
2018-May-15 10:00N 17°11' W 061°60'4 8.4
2018-May-15 09:30N 17°12' W 062°04'4 8.1
2018-May-15 09:00N 17°10' W 062°07'4 8.5
2018-May-15 08:30N 17°06' W 062°09'4 8.4
2018-May-15 08:00N 17°02' W 062°11'5783.8
2018-May-15 08:00N 17°00' W 062°06'714.1 060 / 211016.010.8 25.020.527.0
2018-May-15 07:30N 16°59' W 062°13'4 8.3
2018-May-15 07:00N 16°55' W 062°15'4 8.4
2018-May-15 06:30N 16°51' W 062°17'4 8.4
2018-May-15 06:00N 16°49' W 062°21'4 8.5
2018-May-15 05:30N 16°46' W 062°25'4 8.4
2018-May-15 05:00N 16°44' W 062°28'4 8.1
2018-May-15 04:30N 16°42' W 062°32'4 8.2
2018-May-15 03:57N 16°42' W 062°37'26 5.6
2018-May-14 23:18N 17°03' W 062°52'3 0.3
2018-May-14 09:30N 17°07' W 062°52'713.7
2018-May-14 09:00N 17°00' W 062°54'34 5.8 090 / 231016.010.8 26.021.528.0
2018-May-14 03:08N 17°33' W 063°05'1 5.5
2018-May-14 02:56N 17°34' W 063°05'3 5.5
2018-May-14 02:26N 17°36' W 063°05'3 5.3
2018-May-14 01:54N 17°39' W 063°05'2 5.7
2018-May-14 01:29N 17°42' W 063°05'5 5.3
2018-May-14 00:30N 17°47' W 063°06'2 4.8
2018-May-13 23:59N 17°49' W 063°06'3 5.2
2018-May-13 23:30N 17°52' W 063°06'3 6.4
2018-May-13 23:00N 17°55' W 063°06'3 6.6
2018-May-13 22:30N 17°58' W 063°06'3 5.1
2018-May-13 22:00N 18°00' W 063°04'2 0.2
2018-May-13 12:40N 18°01' W 063°03'0 2.1
2018-May-13 12:30N 18°00' W 063°03'811.1
2018-May-13 11:48N 18°01' W 063°11'516.8
2018-May-13 11:29N 18°01' W 063°17'919.1
2018-May-13 11:00N 18°02' W 063°26'3214.7
2018-May-13 11:00N 18°00' W 063°24'63 1.2 080 / 201018.010.8 26.021.525.0
2018-May-11 08:00N 18°06' W 064°30'64 7.7 090 / 151018.010.8 26.021.526.0
2018-May-10 23:43N 18°02' W 063°23'2 7.9
2018-May-10 23:29N 18°02' W 063°21'4 7.9
2018-May-10 23:00N 18°01' W 063°17'5 8.2
2018-May-10 22:23N 18°01' W 063°12'3 7.5
2018-May-10 21:55N 18°00' W 063°08'3 7.7
2018-May-10 21:29N 18°00' W 063°05'2 2.3
2018-May-10 20:36N 18°01' W 063°03'0 0.0
2018-May-10 20:18N 18°01' W 063°03'0 0.0
2018-May-10 19:55N 18°01' W 063°03'0 0.0
2018-May-10 19:23N 18°01' W 063°03'0 0.0
2018-May-10 15:03N 18°01' W 063°03'0 0.0
2018-May-10 14:46N 18°01' W 063°03'0 0.0
2018-May-10 14:15N 18°01' W 063°03'0 0.0
2018-May-10 11:49N 18°01' W 063°03'1 2.3
2018-May-10 11:21N 18°00' W 063°04'3 7.4
2018-May-10 11:00N 17°60' W 063°07'913.4
2018-May-10 10:22N 18°05' W 063°14'614.1
2018-May-10 09:58N 18°08' W 063°19'613.4
2018-May-10 09:29N 18°12' W 063°24'713.2
2018-May-10 09:00N 18°15' W 063°30'1414.2
2018-May-10 08:00N 18°24' W 063°42'38816.2 080 / 241018.010.8 26.021.525.0
2018-May-09 08:00N 21°54' W 069°30'1312.6 120 / 241017.010.8 26.021.525.0
2018-May-09 07:00N 22°00' W 069°42'35716.2 110 / 221017.010.8 26.021.525.0
2018-May-08 09:00N 25°00' W 075°18'1212.4 170 / 171015.010.8 24.019.425.0
2018-May-08 08:00N 25°06' W 075°30'   180 / 171015.010.8 24.019.425.0
Track history (hours):
 
Tides and Currents Weather Stations Pressure Air Temp Water Temp Dewpoint Dewpoint Depression Visibility Wind Speed Wind Dir Waves Ship Positions

Freedom of the Seas

Last reported at 2018-May-18 05:12 UTC. Time now 2018-May-24 13:56 UTC.
Position N 14°35' W 061°26'.

Length 339 m; draft 9 m.

Type: Passenger vessel. MMSI: 309906000.

Date/timePositionNaut miles runAvg speedWind from/ knotsBaromVisibWave heightAir tempDewpointWater temp
2018-May-18 05:12N 14°35' W 061°26'313.8
2018-May-18 05:00N 14°33' W 061°24'1515.4
2018-May-18 04:03N 14°23' W 061°13'217.0
2018-May-18 03:57N 14°22' W 061°12'716.6
2018-May-18 03:31N 14°17' W 061°06'816.9
2018-May-18 03:01N 14°14' W 060°58'917.6
2018-May-18 02:30N 14°09' W 060°50'1 0.1
2018-May-17 00:40N 14°09' W 060°49'2 8.6
2018-May-17 00:29N 14°10' W 060°50'4 8.8
2018-May-16 23:59N 14°12' W 060°54'4 8.4
2018-May-16 23:30N 14°11' W 060°58'11 0.9
2018-May-16 10:57N 14°10' W 061°09'613.5
2018-May-16 10:30N 14°15' W 061°13'1813.1
2018-May-16 09:06N 14°30' W 061°24'212.5
2018-May-16 08:56N 14°32' W 061°24'157 8.4
2018-May-15 14:20N 17°07' W 061°51'0 0.0
2018-May-15 13:59N 17°07' W 061°51'0 0.0
2018-May-15 13:29N 17°07' W 061°51'0 0.0
2018-May-15 12:59N 17°07' W 061°51'0 0.0
2018-May-15 12:29N 17°07' W 061°51'0 0.0
2018-May-15 11:59N 17°07' W 061°51'0 0.1
2018-May-15 11:30N 17°07' W 061°51'1 1.9
2018-May-15 11:00N 17°08' W 061°52'4 7.9
2018-May-15 10:30N 17°09' W 061°56'4 8.6
2018-May-15 10:00N 17°11' W 061°60'4 8.4
2018-May-15 09:30N 17°12' W 062°04'4 8.1
2018-May-15 09:00N 17°10' W 062°07'4 8.5
2018-May-15 08:30N 17°06' W 062°09'4 8.4
2018-May-15 08:00N 17°02' W 062°11'5783.8
2018-May-15 08:00N 17°00' W 062°06'714.1 060 / 211016.010.8 25.020.527.0
2018-May-15 07:30N 16°59' W 062°13'4 8.3
2018-May-15 07:00N 16°55' W 062°15'4 8.4
2018-May-15 06:30N 16°51' W 062°17'4 8.4
2018-May-15 06:00N 16°49' W 062°21'4 8.5
2018-May-15 05:30N 16°46' W 062°25'4 8.4
2018-May-15 05:00N 16°44' W 062°28'4 8.1
2018-May-15 04:30N 16°42' W 062°32'4 8.2
2018-May-15 03:57N 16°42' W 062°37'26 5.6
2018-May-14 23:18N 17°03' W 062°52'3 0.3
2018-May-14 09:30N 17°07' W 062°52'713.7
2018-May-14 09:00N 17°00' W 062°54'34 5.8 090 / 231016.010.8 26.021.528.0
2018-May-14 03:08N 17°33' W 063°05'1 5.5
2018-May-14 02:56N 17°34' W 063°05'3 5.5
2018-May-14 02:26N 17°36' W 063°05'3 5.3
2018-May-14 01:54N 17°39' W 063°05'2 5.7
2018-May-14 01:29N 17°42' W 063°05'5 5.3
2018-May-14 00:30N 17°47' W 063°06'2 4.8
2018-May-13 23:59N 17°49' W 063°06'3 5.2
2018-May-13 23:30N 17°52' W 063°06'3 6.4
2018-May-13 23:00N 17°55' W 063°06'3 6.6
2018-May-13 22:30N 17°58' W 063°06'3 5.1
2018-May-13 22:00N 18°00' W 063°04'2 0.2
2018-May-13 12:40N 18°01' W 063°03'0 2.1
2018-May-13 12:30N 18°00' W 063°03'811.1
2018-May-13 11:48N 18°01' W 063°11'516.8
2018-May-13 11:29N 18°01' W 063°17'919.1
2018-May-13 11:00N 18°02' W 063°26'3214.7
2018-May-13 11:00N 18°00' W 063°24'63 1.2 080 / 201018.010.8 26.021.525.0
2018-May-11 08:00N 18°06' W 064°30'64 7.7 090 / 151018.010.8 26.021.526.0
2018-May-10 23:43N 18°02' W 063°23'2 7.9
2018-May-10 23:29N 18°02' W 063°21'4 7.9
2018-May-10 23:00N 18°01' W 063°17'5 8.2
2018-May-10 22:23N 18°01' W 063°12'3 7.5
2018-May-10 21:55N 18°00' W 063°08'3 7.7
2018-May-10 21:29N 18°00' W 063°05'2 2.3
2018-May-10 20:36N 18°01' W 063°03'0 0.0
2018-May-10 20:18N 18°01' W 063°03'0 0.0
2018-May-10 19:55N 18°01' W 063°03'0 0.0
2018-May-10 19:23N 18°01' W 063°03'0 0.0
2018-May-10 15:03N 18°01' W 063°03'0 0.0
2018-May-10 14:46N 18°01' W 063°03'0 0.0
2018-May-10 14:15N 18°01' W 063°03'0 0.0
2018-May-10 11:49N 18°01' W 063°03'1 2.3
2018-May-10 11:21N 18°00' W 063°04'3 7.4
2018-May-10 11:00N 17°60' W 063°07'913.4
2018-May-10 10:22N 18°05' W 063°14'614.1
2018-May-10 09:58N 18°08' W 063°19'613.4
2018-May-10 09:29N 18°12' W 063°24'713.2
2018-May-10 09:00N 18°15' W 063°30'1414.2
2018-May-10 08:00N 18°24' W 063°42'38816.2 080 / 241018.010.8 26.021.525.0
2018-May-09 08:00N 21°54' W 069°30'1312.6 120 / 241017.010.8 26.021.525.0
2018-May-09 07:00N 22°00' W 069°42'35716.2 110 / 221017.010.8 26.021.525.0
2018-May-08 09:00N 25°00' W 075°18'1212.4 170 / 171015.010.8 24.019.425.0
2018-May-08 08:00N 25°06' W 075°30'   180 / 171015.010.8 24.019.425.0

Dump ship's entire track history